This demonstration page uses our WeatherBlox Daily Observations layout. Learn more.

41.86663, -103.66717

Hourly Observations for January 4, 2020

Temp ( °F °C ) Dew Point ( °F °C ) Humidity (%) Winds ( mph kmh ) Pressure ( in mb ) Visibility ( mi km ) Precip ( " mm )
12:53 am 00:53 Clear 28 -2.2 24 -4.4 85 85 N 5 7 30.18 1022 10 16.0934 0 0
1:53 am 01:53 Clear 27 -2.8 24 -4.4 89 89 NW 5 7 30.18 1022 10 16.0934 0 0
2:53 am 02:53 Clear 28 -2.2 24 -4.4 85 85 NNW 5 7 30.17 1022 10 16.0934 0 0
3:53 am 03:53 Clear 26 -3.3 23 -5 88 88 Calm 30.16 1021 10 16.0934 0 0
4:53 am 04:53 Clear 26 -3.3 23 -5 88 88 NNW 3 6 30.14 1021 10 16.0934 0 0
5:53 am 05:53 Clear 27 -2.8 23 -5 85 85 NNW 6 9 30.15 1021 10 16.0934 0 0
6:53 am 06:53 Clear 29 -1.7 24 -4.4 82 82 NNW 8 13 30.14 1021 10 16.0934 0 0
7:53 am 07:53 Sunny 31 -0.6 26 -3.3 82 82 WNW 6 9 30.12 1020 10 16.0934 0 0
8:53 am 08:53 Sunny 36 2.2 28 -2.2 73 73 NW 9 15 30.1 1019 10 16.0934 0 0
9:53 am 09:53 Sunny 46 7.8 27 -2.8 47 47 WNW 14 22 30.08 1019 10 16.0934 0 0
10:53 am 10:53 Sunny 52 11.1 28 -2.2 40 40 WNW 20 31 30.03 1017 10 16.0934 0 0
11:53 am 11:53 Sunny 53 11.7 28 -2.2 38 38 NW 7 11 30 1016 10 16.0934 0 0
12:53 pm 12:53 Sunny 55 12.8 27 -2.8 34 34 W 13 20 29.94 1014 10 16.0934 0 0
1:53 pm 13:53 Sunny 57 13.9 27 -2.8 32 32 W 10 17 29.92 1013 10 16.0934 0 0
2:53 pm 14:53 Sunny 55 12.8 28 -2.2 35 35 VRB 5 7 29.94 1014 10 16.0934 0 0
3:53 pm 15:53 Sunny 53 11.7 29 -1.7 40 40 WSW 13 20 29.95 1014 10 16.0934 0 0
4:53 pm 16:53 Clear 45 7.2 28 -2.2 52 52 NW 7 11 29.97 1015 10 16.0934 0 0
5:53 pm 17:53 Clear 44 6.7 27 -2.8 51 51 W 10 17 30.01 1016 10 16.0934 0 0
6:53 pm 18:53 Clear 50 10 25 -3.9 38 38 W 23 37 30 1016 10 16.0934 0 0
7:53 pm 19:53 Clear 47 8.3 25 -3.9 42 42 undefined N/A 30.04 1017 10 16.0934 0 0
8:53 pm 20:53 Clear 47 8.3 24 -4.4 41 41 W 18 30 30.02 1017 10 16.0934 0 0
9:53 pm 21:53 Clear 46 7.8 24 -4.4 42 42 WNW 29 46 30.03 1017 10 16.0934 0 0
10:53 pm 22:53 Clear 44 6.7 24 -4.4 45 45 W 26 43 30.06 1018 10 16.0934 0 0
11:53 pm 23:53 Clear 42 5.6 24 -4.4 49 49 W 31 50 30.11 1020 10 16.0934 0 0

Powered by AerisWeather